Year,Month,Day,Hour,Minute,Value (Times are PST for temperature in C)
2022,10,07,00,00,15.90
2022,10,07,00,01,15.80
2022,10,07,00,02,15.80
2022,10,07,00,03,15.80
2022,10,07,00,04,15.80
2022,10,07,00,05,15.80
2022,10,07,00,06,15.80
2022,10,07,00,07,15.80
2022,10,07,00,08,15.80
2022,10,07,00,09,15.80
2022,10,07,00,10,15.80
2022,10,07,00,11,15.70
2022,10,07,00,12,15.70
2022,10,07,00,13,15.80
2022,10,07,00,14,15.70
2022,10,07,00,15,15.70
2022,10,07,00,16,15.70
2022,10,07,00,17,15.70
2022,10,07,00,18,15.60
2022,10,07,00,19,15.60
2022,10,07,00,20,15.60
2022,10,07,00,21,15.60
2022,10,07,00,22,15.60
2022,10,07,00,23,15.60
2022,10,07,00,24,15.60
2022,10,07,00,25,15.60
2022,10,07,00,26,15.60
2022,10,07,00,27,15.60
2022,10,07,00,28,15.50
2022,10,07,00,29,15.60
2022,10,07,00,30,15.50
2022,10,07,00,31,15.50
2022,10,07,00,32,15.50
2022,10,07,00,33,15.40
2022,10,07,00,34,15.40
2022,10,07,00,35,15.40
2022,10,07,00,36,15.40
2022,10,07,00,37,15.40
2022,10,07,00,38,15.40
2022,10,07,00,39,15.40
2022,10,07,00,40,15.40
2022,10,07,00,41,15.40
2022,10,07,00,42,15.40
2022,10,07,00,43,15.40
2022,10,07,00,44,15.40
2022,10,07,00,45,15.30
2022,10,07,00,46,15.30
2022,10,07,00,47,15.30
2022,10,07,00,48,15.30
2022,10,07,00,49,15.30
2022,10,07,00,50,15.30
2022,10,07,00,51,15.30
2022,10,07,00,52,15.30
2022,10,07,00,53,15.30
2022,10,07,00,54,15.30
2022,10,07,00,55,15.30
2022,10,07,00,56,15.30
2022,10,07,00,57,15.30
2022,10,07,00,58,15.30
2022,10,07,00,59,15.20
2022,10,07,01,00,15.20
2022,10,07,01,01,15.20
2022,10,07,01,02,15.20
2022,10,07,01,03,15.20
2022,10,07,01,04,15.20
2022,10,07,01,05,15.20
2022,10,07,01,06,15.20
2022,10,07,01,07,15.20
2022,10,07,01,08,15.20
2022,10,07,01,09,15.20
2022,10,07,01,10,15.20
2022,10,07,01,11,15.20
2022,10,07,01,12,15.20
2022,10,07,01,13,15.20
2022,10,07,01,14,15.20
2022,10,07,01,15,15.30
2022,10,07,01,16,15.30
2022,10,07,01,17,15.30
2022,10,07,01,18,15.30
2022,10,07,01,19,15.30
2022,10,07,01,20,15.30
2022,10,07,01,21,15.30
2022,10,07,01,22,15.30
2022,10,07,01,23,15.30
2022,10,07,01,24,15.20
2022,10,07,01,25,15.20
2022,10,07,01,26,15.20
2022,10,07,01,27,15.20
2022,10,07,01,28,15.20
2022,10,07,01,29,15.20
2022,10,07,01,30,15.20
2022,10,07,01,31,15.20
2022,10,07,01,32,15.20
2022,10,07,01,33,15.20
2022,10,07,01,34,15.20
2022,10,07,01,35,15.20
2022,10,07,01,36,15.20
2022,10,07,01,37,15.20
2022,10,07,01,38,15.20
2022,10,07,01,39,15.20
2022,10,07,01,40,15.20
2022,10,07,01,41,15.20
2022,10,07,01,42,15.20
2022,10,07,01,43,15.20
2022,10,07,01,44,15.20
2022,10,07,01,45,15.10
2022,10,07,01,46,15.10
2022,10,07,01,47,15.10
2022,10,07,01,48,15.10
2022,10,07,01,49,15.10
2022,10,07,01,50,15.10
2022,10,07,01,51,15.10
2022,10,07,01,52,15.10
2022,10,07,01,53,15.10
2022,10,07,01,54,15.10
2022,10,07,01,55,15.10
2022,10,07,01,56,15.10
2022,10,07,01,57,15.20
2022,10,07,01,58,15.20
2022,10,07,01,59,15.20
2022,10,07,02,00,15.20
2022,10,07,02,01,15.20
2022,10,07,02,02,15.20
2022,10,07,02,03,15.20
2022,10,07,02,04,15.20
2022,10,07,02,05,15.20
2022,10,07,02,06,15.20
2022,10,07,02,07,15.10
2022,10,07,02,08,15.10
2022,10,07,02,09,15.10
2022,10,07,02,10,15.10
2022,10,07,02,11,15.10
2022,10,07,02,12,15.10
2022,10,07,02,13,15.10
2022,10,07,02,14,15.10
2022,10,07,02,15,15.10
2022,10,07,02,16,15.20
2022,10,07,02,17,15.10
2022,10,07,02,18,15.20
2022,10,07,02,19,15.10
2022,10,07,02,20,15.10
2022,10,07,02,21,15.10
2022,10,07,02,22,15.10
2022,10,07,02,23,15.10
2022,10,07,02,24,15.20
2022,10,07,02,25,15.20
2022,10,07,02,26,15.20
2022,10,07,02,27,15.20
2022,10,07,02,28,15.20
2022,10,07,02,29,15.20
2022,10,07,02,30,15.20
2022,10,07,02,31,15.20
2022,10,07,02,32,15.20
2022,10,07,02,33,15.20
2022,10,07,02,34,15.20
2022,10,07,02,35,15.20
2022,10,07,02,36,15.20
2022,10,07,02,37,15.20
2022,10,07,02,38,15.20
2022,10,07,02,39,15.20
2022,10,07,02,40,15.20
2022,10,07,02,41,15.20
2022,10,07,02,42,15.20
2022,10,07,02,43,15.20
2022,10,07,02,44,15.20
2022,10,07,02,45,15.20
2022,10,07,02,46,15.20
2022,10,07,02,47,15.20
2022,10,07,02,48,15.20
2022,10,07,02,49,15.20
2022,10,07,02,50,15.20
2022,10,07,02,51,15.20
2022,10,07,02,52,15.30
2022,10,07,02,53,15.30
2022,10,07,02,54,15.30
2022,10,07,02,55,15.30
2022,10,07,02,56,15.30
2022,10,07,02,57,15.30
2022,10,07,02,58,15.30
2022,10,07,02,59,15.30
2022,10,07,03,00,15.30
2022,10,07,03,01,15.30
2022,10,07,03,02,15.30
2022,10,07,03,03,15.30
2022,10,07,03,04,15.30
2022,10,07,03,05,15.30
2022,10,07,03,06,15.30
2022,10,07,03,07,15.30
2022,10,07,03,08,15.30
2022,10,07,03,09,15.30
2022,10,07,03,10,15.30
2022,10,07,03,11,15.30
2022,10,07,03,12,15.30
2022,10,07,03,13,15.30
2022,10,07,03,14,15.30
2022,10,07,03,15,15.30
2022,10,07,03,16,15.30
2022,10,07,03,17,15.30
2022,10,07,03,18,15.20
2022,10,07,03,19,15.20
2022,10,07,03,20,15.20
2022,10,07,03,21,15.20
2022,10,07,03,22,15.20
2022,10,07,03,23,15.20
2022,10,07,03,24,15.20
2022,10,07,03,25,15.20
2022,10,07,03,26,15.20
2022,10,07,03,27,15.20
2022,10,07,03,28,15.20
2022,10,07,03,29,15.10
2022,10,07,03,30,15.10
2022,10,07,03,31,15.10
2022,10,07,03,32,15.10
2022,10,07,03,33,15.10
2022,10,07,03,34,15.10
2022,10,07,03,35,15.10
2022,10,07,03,36,15.10
2022,10,07,03,37,15.10
2022,10,07,03,38,15.10
2022,10,07,03,39,15.10
2022,10,07,03,40,15.10
2022,10,07,03,41,15.10
2022,10,07,03,42,15.10
2022,10,07,03,43,15.10
2022,10,07,03,44,15.10
2022,10,07,03,45,15.10
2022,10,07,03,46,15.10
2022,10,07,03,47,15.10
2022,10,07,03,48,15.10
2022,10,07,03,49,15.10
2022,10,07,03,50,15.00
2022,10,07,03,51,15.00
2022,10,07,03,52,15.00
2022,10,07,03,53,15.00
2022,10,07,03,54,15.00
2022,10,07,03,55,15.00
2022,10,07,03,56,15.00
2022,10,07,03,57,15.00
2022,10,07,03,58,15.10
2022,10,07,03,59,15.10
2022,10,07,04,00,15.10
2022,10,07,04,01,15.10
2022,10,07,04,02,15.10
2022,10,07,04,03,15.10
2022,10,07,04,04,15.10
2022,10,07,04,05,15.10
2022,10,07,04,06,15.10
2022,10,07,04,07,15.10
2022,10,07,04,08,15.10
2022,10,07,04,09,15.10
2022,10,07,04,10,15.10
2022,10,07,04,11,15.10
2022,10,07,04,12,15.10
2022,10,07,04,13,15.10
2022,10,07,04,14,15.10
2022,10,07,04,15,15.10
2022,10,07,04,16,15.00
2022,10,07,04,17,15.00
2022,10,07,04,18,15.00
2022,10,07,04,19,15.00
2022,10,07,04,20,15.00
2022,10,07,04,21,15.00
2022,10,07,04,22,15.00
2022,10,07,04,23,15.00
2022,10,07,04,24,15.00
2022,10,07,04,25,15.00
2022,10,07,04,26,15.00
2022,10,07,04,27,15.00
2022,10,07,04,28,15.00
2022,10,07,04,29,15.00
2022,10,07,04,30,15.00
2022,10,07,04,31,15.00
2022,10,07,04,32,15.00
2022,10,07,04,33,15.00
2022,10,07,04,34,15.00
2022,10,07,04,35,15.00
2022,10,07,04,36,15.00
2022,10,07,04,37,14.90
2022,10,07,04,38,14.90
2022,10,07,04,39,14.90
2022,10,07,04,40,14.90
2022,10,07,04,41,14.90
2022,10,07,04,42,14.90
2022,10,07,04,43,14.90
2022,10,07,04,44,14.90
2022,10,07,04,45,14.90
2022,10,07,04,46,14.90
2022,10,07,04,47,14.90
2022,10,07,04,48,14.90
2022,10,07,04,49,14.90
2022,10,07,04,50,14.80
2022,10,07,04,51,14.80
2022,10,07,04,52,14.80
2022,10,07,04,53,14.90
2022,10,07,04,54,14.80
2022,10,07,04,55,14.80
2022,10,07,04,56,14.80
2022,10,07,04,57,14.80
2022,10,07,04,58,14.80
2022,10,07,04,59,14.80
2022,10,07,05,00,14.80
2022,10,07,05,01,14.80
2022,10,07,05,02,14.70
2022,10,07,05,03,14.70
2022,10,07,05,04,14.70
2022,10,07,05,05,14.70
2022,10,07,05,06,14.70
2022,10,07,05,07,14.70
2022,10,07,05,08,14.70
2022,10,07,05,09,14.70
2022,10,07,05,10,14.70
2022,10,07,05,11,14.60
2022,10,07,05,12,14.70
2022,10,07,05,13,14.70
2022,10,07,05,14,14.70
2022,10,07,05,15,14.70
2022,10,07,05,16,14.70
2022,10,07,05,17,14.60
2022,10,07,05,18,14.60
2022,10,07,05,19,14.60
2022,10,07,05,20,14.60
2022,10,07,05,21,14.60
2022,10,07,05,22,14.60
2022,10,07,05,23,14.60
2022,10,07,05,24,14.60
2022,10,07,05,25,14.60
2022,10,07,05,26,14.60
2022,10,07,05,27,14.50
2022,10,07,05,28,14.60
2022,10,07,05,29,14.60
2022,10,07,05,30,14.60
2022,10,07,05,31,14.60
2022,10,07,05,32,14.60
2022,10,07,05,33,14.60
2022,10,07,05,34,14.60
2022,10,07,05,35,14.60
2022,10,07,05,36,14.60
2022,10,07,05,37,14.60
2022,10,07,05,38,14.60
2022,10,07,05,39,14.60
2022,10,07,05,40,14.50
2022,10,07,05,41,14.50
2022,10,07,05,42,14.50
2022,10,07,05,43,14.50
2022,10,07,05,44,14.50
2022,10,07,05,45,14.40
2022,10,07,05,46,14.40
2022,10,07,05,47,14.40
2022,10,07,05,48,14.40
2022,10,07,05,49,14.40
2022,10,07,05,50,14.40
2022,10,07,05,51,14.40
2022,10,07,05,52,14.40
2022,10,07,05,53,14.40
2022,10,07,05,54,14.40
2022,10,07,05,55,14.30
2022,10,07,05,56,14.30
2022,10,07,05,57,14.30
2022,10,07,05,58,14.30
2022,10,07,05,59,14.30
2022,10,07,06,00,14.30
2022,10,07,06,01,14.30
2022,10,07,06,02,14.20
2022,10,07,06,03,14.20
2022,10,07,06,04,14.20
2022,10,07,06,05,14.20
2022,10,07,06,06,14.20
2022,10,07,06,07,14.10
2022,10,07,06,08,14.10
2022,10,07,06,09,14.10
2022,10,07,06,10,14.10
2022,10,07,06,11,14.10
2022,10,07,06,12,14.10
2022,10,07,06,13,14.10
2022,10,07,06,14,14.10
2022,10,07,06,15,14.10
2022,10,07,06,16,14.10
2022,10,07,06,17,14.10
2022,10,07,06,18,14.10
2022,10,07,06,19,14.10
2022,10,07,06,20,14.10
2022,10,07,06,21,14.10
2022,10,07,06,22,14.10
2022,10,07,06,23,14.10
2022,10,07,06,24,14.10
2022,10,07,06,25,14.10
2022,10,07,06,26,14.10
2022,10,07,06,27,14.10
2022,10,07,06,28,14.10
2022,10,07,06,29,14.10
2022,10,07,06,30,14.10
2022,10,07,06,31,14.10
2022,10,07,06,32,14.10
2022,10,07,06,33,14.10
2022,10,07,06,34,14.10
2022,10,07,06,35,14.10
2022,10,07,06,36,14.10
2022,10,07,06,37,14.10
2022,10,07,06,38,14.10
2022,10,07,06,39,14.10
2022,10,07,06,40,14.10
2022,10,07,06,41,14.10
2022,10,07,06,42,14.10
2022,10,07,06,43,14.10
2022,10,07,06,44,14.10
2022,10,07,06,45,14.10
2022,10,07,06,46,14.10
2022,10,07,06,47,14.10
2022,10,07,06,48,14.10
2022,10,07,06,49,14.10
2022,10,07,06,50,14.10
2022,10,07,06,51,14.10
2022,10,07,06,52,14.10
2022,10,07,06,53,14.00
2022,10,07,06,54,14.10
2022,10,07,06,55,14.00
2022,10,07,06,56,14.00
2022,10,07,06,57,14.00
2022,10,07,06,58,14.00
2022,10,07,06,59,14.00
2022,10,07,07,00,14.10
2022,10,07,07,01,14.00
2022,10,07,07,02,14.00
2022,10,07,07,03,14.00
2022,10,07,07,04,14.00
2022,10,07,07,05,14.00
2022,10,07,07,06,13.90
2022,10,07,07,07,13.90
2022,10,07,07,08,13.90
2022,10,07,07,09,13.90
2022,10,07,07,10,13.90
2022,10,07,07,11,13.90
2022,10,07,07,12,13.90
2022,10,07,07,13,13.90
2022,10,07,07,14,13.90
2022,10,07,07,15,13.90
2022,10,07,07,16,13.90
2022,10,07,07,17,13.90
2022,10,07,07,18,13.90
2022,10,07,07,19,13.90
2022,10,07,07,20,13.90
2022,10,07,07,21,13.90
2022,10,07,07,22,14.00
2022,10,07,07,23,13.90
2022,10,07,07,24,13.90
2022,10,07,07,25,14.00
2022,10,07,07,26,13.90
2022,10,07,07,27,13.90
2022,10,07,07,28,14.00
2022,10,07,07,29,14.00
2022,10,07,07,30,14.00
2022,10,07,07,31,14.00
2022,10,07,07,32,14.00
2022,10,07,07,33,14.00
2022,10,07,07,34,14.00
2022,10,07,07,35,14.00
2022,10,07,07,36,14.00
2022,10,07,07,37,14.00
2022,10,07,07,38,14.00
2022,10,07,07,39,14.00
2022,10,07,07,40,14.00
2022,10,07,07,41,14.00
2022,10,07,07,42,14.00
2022,10,07,07,43,13.90
2022,10,07,07,44,13.90
2022,10,07,07,45,13.90
2022,10,07,07,46,13.90
2022,10,07,07,47,13.90
2022,10,07,07,48,13.90
2022,10,07,07,49,13.90
2022,10,07,07,50,13.90
2022,10,07,07,51,13.90
2022,10,07,07,52,13.90
2022,10,07,07,53,13.90
2022,10,07,07,54,13.90
2022,10,07,07,55,13.90
2022,10,07,07,56,13.90
2022,10,07,07,57,13.90
2022,10,07,07,58,13.90
2022,10,07,07,59,13.90
2022,10,07,08,00,13.90
2022,10,07,08,01,13.90
2022,10,07,08,02,13.90
2022,10,07,08,03,13.90
2022,10,07,08,04,13.90
2022,10,07,08,05,13.90
2022,10,07,08,06,13.90
2022,10,07,08,07,13.90
2022,10,07,08,08,13.90
2022,10,07,08,09,13.90
2022,10,07,08,10,13.90
2022,10,07,08,11,13.90
2022,10,07,08,12,13.90
2022,10,07,08,13,13.90
2022,10,07,08,14,13.90
2022,10,07,08,15,13.90
2022,10,07,08,16,13.80
2022,10,07,08,17,13.90
2022,10,07,08,18,13.90
2022,10,07,08,19,13.90
2022,10,07,08,20,13.90
2022,10,07,08,21,13.90
2022,10,07,08,22,13.90
2022,10,07,08,23,13.90
2022,10,07,08,24,13.90
2022,10,07,08,25,13.90
2022,10,07,08,26,13.90
2022,10,07,08,27,13.90
2022,10,07,08,28,13.90
2022,10,07,08,29,13.90
2022,10,07,08,30,13.90
2022,10,07,08,31,13.90
2022,10,07,08,32,13.90
2022,10,07,08,33,14.00
2022,10,07,08,34,14.00
2022,10,07,08,35,14.00
2022,10,07,08,36,14.00
2022,10,07,08,37,14.00
2022,10,07,08,38,14.10
2022,10,07,08,39,14.10
2022,10,07,08,40,14.10
2022,10,07,08,41,14.10
2022,10,07,08,42,14.10
2022,10,07,08,43,14.10
2022,10,07,08,44,14.10
2022,10,07,08,45,14.20
2022,10,07,08,46,14.20
2022,10,07,08,47,14.20
2022,10,07,08,48,14.30
2022,10,07,08,49,14.30
2022,10,07,08,50,14.30
2022,10,07,08,51,14.40
2022,10,07,08,52,14.40
2022,10,07,08,53,14.50
2022,10,07,08,54,14.60
2022,10,07,08,55,14.60
2022,10,07,08,56,14.70
2022,10,07,08,57,14.70
2022,10,07,08,58,14.80
2022,10,07,08,59,14.90
2022,10,07,09,00,14.90
2022,10,07,09,01,15.00
2022,10,07,09,02,15.10
2022,10,07,09,03,15.20
2022,10,07,09,04,15.30
2022,10,07,09,05,15.40
2022,10,07,09,06,15.50
2022,10,07,09,07,15.50
2022,10,07,09,08,15.60
2022,10,07,09,09,15.70
2022,10,07,09,10,15.80
2022,10,07,09,11,15.80
2022,10,07,09,12,15.90
2022,10,07,09,13,16.00
2022,10,07,09,14,16.10
2022,10,07,09,15,16.10
2022,10,07,09,16,16.20
2022,10,07,09,17,16.30
2022,10,07,09,18,16.40
2022,10,07,09,19,16.50
2022,10,07,09,20,16.50
2022,10,07,09,21,16.60
2022,10,07,09,22,16.70
2022,10,07,09,23,16.70
2022,10,07,09,24,16.80
2022,10,07,09,25,16.90
2022,10,07,09,26,17.00
2022,10,07,09,27,17.10
2022,10,07,09,28,17.20
2022,10,07,09,29,17.20
2022,10,07,09,30,17.30
2022,10,07,09,31,17.40
2022,10,07,09,32,17.50
2022,10,07,09,33,17.60
2022,10,07,09,34,17.80
2022,10,07,09,35,17.80
2022,10,07,09,36,17.90
2022,10,07,09,37,18.00
2022,10,07,09,38,18.10
2022,10,07,09,39,18.10
2022,10,07,09,40,18.20
2022,10,07,09,41,18.20
2022,10,07,09,42,18.20
2022,10,07,09,43,18.30
2022,10,07,09,44,18.30
2022,10,07,09,45,18.40
2022,10,07,09,46,18.40
2022,10,07,09,47,18.40
2022,10,07,09,48,18.50
2022,10,07,09,49,18.50
2022,10,07,09,50,18.50
2022,10,07,09,51,18.60
2022,10,07,09,52,18.50
2022,10,07,09,53,18.50
2022,10,07,09,54,18.50
2022,10,07,09,55,18.50
2022,10,07,09,56,18.50
2022,10,07,09,57,18.50
2022,10,07,09,58,18.50
2022,10,07,09,59,18.50
2022,10,07,10,00,18.60
2022,10,07,10,01,18.60
2022,10,07,10,02,18.60
2022,10,07,10,03,18.60
2022,10,07,10,04,18.70
2022,10,07,10,05,18.70
2022,10,07,10,06,18.80
2022,10,07,10,07,18.80
2022,10,07,10,08,18.90
2022,10,07,10,09,19.00
2022,10,07,10,10,19.10
2022,10,07,10,11,19.20
2022,10,07,10,12,19.30
2022,10,07,10,13,19.40
2022,10,07,10,14,19.40
2022,10,07,10,15,19.40
2022,10,07,10,16,19.50
2022,10,07,10,17,19.50
2022,10,07,10,18,19.40
2022,10,07,10,19,19.40
2022,10,07,10,20,19.40
2022,10,07,10,21,19.30
2022,10,07,10,22,19.30
2022,10,07,10,23,19.30
2022,10,07,10,24,19.30
2022,10,07,10,25,19.30
2022,10,07,10,26,19.30
2022,10,07,10,27,19.20
2022,10,07,10,28,19.20
2022,10,07,10,29,19.10
2022,10,07,10,30,19.10
2022,10,07,10,31,19.10
2022,10,07,10,32,19.10
2022,10,07,10,33,19.10
2022,10,07,10,34,19.00
2022,10,07,10,35,19.00
2022,10,07,10,36,19.10
2022,10,07,10,37,19.00
2022,10,07,10,38,19.10
2022,10,07,10,39,19.10
2022,10,07,10,40,19.10
2022,10,07,10,41,19.10
2022,10,07,10,42,19.10
2022,10,07,10,43,19.10
2022,10,07,10,44,19.10
2022,10,07,10,45,19.20
2022,10,07,10,46,19.20
2022,10,07,10,47,19.20
2022,10,07,10,48,19.30
2022,10,07,10,49,19.30
2022,10,07,10,50,19.30
2022,10,07,10,51,19.30
2022,10,07,10,52,19.30
2022,10,07,10,53,19.30
2022,10,07,10,54,19.30
2022,10,07,10,55,19.30
2022,10,07,10,56,19.30
2022,10,07,10,57,19.30
2022,10,07,10,58,19.30
2022,10,07,10,59,19.30
2022,10,07,11,00,19.40
2022,10,07,11,01,19.40
2022,10,07,11,02,19.40
2022,10,07,11,03,19.40
2022,10,07,11,04,19.40
2022,10,07,11,05,19.40
2022,10,07,11,06,19.40
2022,10,07,11,07,19.40
2022,10,07,11,08,19.40
2022,10,07,11,09,19.50
2022,10,07,11,10,19.40
2022,10,07,11,11,19.50
2022,10,07,11,12,19.50
2022,10,07,11,13,19.50
2022,10,07,11,14,19.50
2022,10,07,11,15,19.60
2022,10,07,11,16,19.60
2022,10,07,11,17,19.70
2022,10,07,11,18,19.70
2022,10,07,11,19,19.80
2022,10,07,11,20,19.80
2022,10,07,11,21,19.90
2022,10,07,11,22,19.90
2022,10,07,11,23,20.00
2022,10,07,11,24,20.00
2022,10,07,11,25,20.10
2022,10,07,11,26,20.20
2022,10,07,11,27,20.30
2022,10,07,11,28,20.30
2022,10,07,11,29,20.40
2022,10,07,11,30,20.50
2022,10,07,11,31,20.60
2022,10,07,11,32,20.60
2022,10,07,11,33,20.70
2022,10,07,11,34,20.80
2022,10,07,11,35,20.80
2022,10,07,11,36,20.90
2022,10,07,11,37,20.90
2022,10,07,11,38,20.80
2022,10,07,11,39,20.90
2022,10,07,11,40,20.90
2022,10,07,11,41,20.90
2022,10,07,11,42,20.90
2022,10,07,11,43,20.90
2022,10,07,11,44,21.00
2022,10,07,11,45,21.00
2022,10,07,11,46,21.10
2022,10,07,11,47,21.10
2022,10,07,11,48,21.20
2022,10,07,11,49,21.20
2022,10,07,11,50,21.30
2022,10,07,11,51,21.30
2022,10,07,11,52,21.30
2022,10,07,11,53,21.30
2022,10,07,11,54,21.40
2022,10,07,11,55,21.40
2022,10,07,11,56,21.50
2022,10,07,11,57,21.50
2022,10,07,11,58,21.60
2022,10,07,11,59,21.60
2022,10,07,12,00,21.60
2022,10,07,12,01,21.50
2022,10,07,12,02,21.50
2022,10,07,12,03,21.50
2022,10,07,12,04,21.50
2022,10,07,12,05,21.60
2022,10,07,12,06,21.60
2022,10,07,12,07,21.50
2022,10,07,12,08,21.50
2022,10,07,12,09,21.40
2022,10,07,12,10,21.30
2022,10,07,12,11,21.30
2022,10,07,12,12,21.30
2022,10,07,12,13,21.20
2022,10,07,12,14,21.20
2022,10,07,12,15,21.20
2022,10,07,12,16,21.30
2022,10,07,12,17,21.30
2022,10,07,12,18,21.30
2022,10,07,12,19,21.30
2022,10,07,12,20,21.30
2022,10,07,12,21,21.30
2022,10,07,12,22,21.30
2022,10,07,12,23,21.30
2022,10,07,12,24,21.30
2022,10,07,12,25,21.30
2022,10,07,12,26,21.40
2022,10,07,12,27,21.40
2022,10,07,12,28,21.40
2022,10,07,12,29,21.40
2022,10,07,12,30,21.40
2022,10,07,12,31,21.40
2022,10,07,12,32,21.40
2022,10,07,12,33,21.40
2022,10,07,12,34,21.40
2022,10,07,12,35,21.40
2022,10,07,12,36,21.50
2022,10,07,12,37,21.50
2022,10,07,12,38,21.50
2022,10,07,12,39,21.50
2022,10,07,12,40,21.50
2022,10,07,12,41,21.60
2022,10,07,12,42,21.60
2022,10,07,12,43,21.70
2022,10,07,12,44,21.80
2022,10,07,12,45,21.90
2022,10,07,12,46,21.90
2022,10,07,12,47,21.90
2022,10,07,12,48,21.90
2022,10,07,12,49,21.90
2022,10,07,12,50,21.80
2022,10,07,12,51,21.80
2022,10,07,12,52,21.70
2022,10,07,12,53,21.60
2022,10,07,12,54,21.60
2022,10,07,12,55,21.50
2022,10,07,12,56,21.40
2022,10,07,12,57,21.40
2022,10,07,12,58,21.50
2022,10,07,12,59,21.50
2022,10,07,13,00,21.40
2022,10,07,13,01,21.40
2022,10,07,13,02,21.30
2022,10,07,13,03,21.30
2022,10,07,13,04,21.30
2022,10,07,13,05,21.30
2022,10,07,13,06,21.30
2022,10,07,13,07,21.30
2022,10,07,13,08,21.30
2022,10,07,13,09,21.30
2022,10,07,13,10,21.30
2022,10,07,13,11,21.40
2022,10,07,13,12,21.40
2022,10,07,13,13,21.50
2022,10,07,13,14,21.50
2022,10,07,13,15,21.60
2022,10,07,13,16,21.60
2022,10,07,13,17,21.70
2022,10,07,13,18,21.70
2022,10,07,13,19,21.60
2022,10,07,13,20,21.50
2022,10,07,13,21,21.40
2022,10,07,13,22,21.40
2022,10,07,13,23,21.40
2022,10,07,13,24,21.40
2022,10,07,13,25,21.30
2022,10,07,13,26,21.20
2022,10,07,13,27,21.20
2022,10,07,13,28,21.10
2022,10,07,13,29,21.10
2022,10,07,13,30,21.10
2022,10,07,13,31,21.10
2022,10,07,13,32,21.10
2022,10,07,13,33,21.10
2022,10,07,13,34,21.10
2022,10,07,13,35,21.20
2022,10,07,13,36,21.20
2022,10,07,13,37,21.30
2022,10,07,13,38,21.30
2022,10,07,13,39,21.30
2022,10,07,13,40,21.40
2022,10,07,13,41,21.40
2022,10,07,13,42,21.40
2022,10,07,13,43,21.40
2022,10,07,13,44,21.50
2022,10,07,13,45,21.50
2022,10,07,13,46,21.60
2022,10,07,13,47,21.70
2022,10,07,13,48,21.80
2022,10,07,13,49,21.90
2022,10,07,13,50,21.90
2022,10,07,13,51,22.00
2022,10,07,13,52,22.10
2022,10,07,13,53,22.20
2022,10,07,13,54,22.30
2022,10,07,13,55,22.40
2022,10,07,13,56,22.40
2022,10,07,13,57,22.50
2022,10,07,13,58,22.50
2022,10,07,13,59,22.50
2022,10,07,14,00,22.60
2022,10,07,14,01,22.60
2022,10,07,14,02,22.60
2022,10,07,14,03,22.60
2022,10,07,14,04,22.60
2022,10,07,14,05,22.60
2022,10,07,14,06,22.70
2022,10,07,14,07,22.70
2022,10,07,14,08,22.80
2022,10,07,14,09,22.70
2022,10,07,14,10,22.70
2022,10,07,14,11,22.70
2022,10,07,14,12,22.70
2022,10,07,14,13,22.70
2022,10,07,14,14,22.60
2022,10,07,14,15,22.60
2022,10,07,14,16,22.60
2022,10,07,14,17,22.60
2022,10,07,14,18,22.50
2022,10,07,14,19,22.40
2022,10,07,14,20,22.40
2022,10,07,14,21,22.40
2022,10,07,14,22,22.40
2022,10,07,14,23,22.50
2022,10,07,14,24,22.50
2022,10,07,14,25,22.60
2022,10,07,14,26,22.60
2022,10,07,14,27,22.60
2022,10,07,14,28,22.70
2022,10,07,14,29,22.70
2022,10,07,14,30,22.70
2022,10,07,14,31,22.80
2022,10,07,14,32,22.80
2022,10,07,14,33,22.80
2022,10,07,14,34,22.80
2022,10,07,14,35,22.80
2022,10,07,14,36,22.80
2022,10,07,14,37,22.80
2022,10,07,14,38,22.80
2022,10,07,14,39,22.80
2022,10,07,14,40,22.80
2022,10,07,14,41,22.80
2022,10,07,14,42,22.80
2022,10,07,14,43,22.80
2022,10,07,14,44,22.80
2022,10,07,14,45,22.80
2022,10,07,14,46,22.80
2022,10,07,14,47,22.80
2022,10,07,14,48,22.80
2022,10,07,14,49,22.70
2022,10,07,14,50,22.70
2022,10,07,14,51,22.70
2022,10,07,14,52,22.70
2022,10,07,14,53,22.70
2022,10,07,14,54,22.70
2022,10,07,14,55,22.70
2022,10,07,14,56,22.80
2022,10,07,14,57,22.80
2022,10,07,14,58,22.80
2022,10,07,14,59,22.80
2022,10,07,15,00,22.80
2022,10,07,15,01,22.90
2022,10,07,15,02,22.90
2022,10,07,15,03,22.90
2022,10,07,15,04,22.90
2022,10,07,15,05,22.90
2022,10,07,15,06,22.90
2022,10,07,15,07,22.90
2022,10,07,15,08,23.00
2022,10,07,15,09,23.00
2022,10,07,15,10,23.00
2022,10,07,15,11,23.00
2022,10,07,15,12,23.00
2022,10,07,15,13,23.00
2022,10,07,15,14,23.10
2022,10,07,15,15,23.10
2022,10,07,15,16,23.10
2022,10,07,15,17,23.10
2022,10,07,15,18,23.10
2022,10,07,15,19,23.10
2022,10,07,15,20,23.10
2022,10,07,15,21,23.10
2022,10,07,15,22,23.10
2022,10,07,15,23,23.00
2022,10,07,15,24,23.00
2022,10,07,15,25,23.00
2022,10,07,15,26,22.90
2022,10,07,15,27,22.90
2022,10,07,15,28,22.90
2022,10,07,15,29,22.90
2022,10,07,15,30,23.00
2022,10,07,15,31,23.00
2022,10,07,15,32,23.00
2022,10,07,15,33,23.10
2022,10,07,15,34,23.10
2022,10,07,15,35,23.10
2022,10,07,15,36,23.10
2022,10,07,15,37,23.10
2022,10,07,15,38,23.10
2022,10,07,15,39,23.00
2022,10,07,15,40,23.00
2022,10,07,15,41,23.00
2022,10,07,15,42,23.00
2022,10,07,15,43,22.90
2022,10,07,15,44,22.90
2022,10,07,15,45,22.90
2022,10,07,15,46,22.90
2022,10,07,15,47,22.90
2022,10,07,15,48,22.90
2022,10,07,15,49,22.90
2022,10,07,15,50,22.90
2022,10,07,15,51,22.90
2022,10,07,15,52,22.90
2022,10,07,15,53,22.90
2022,10,07,15,54,22.90
2022,10,07,15,55,22.90
2022,10,07,15,56,22.90
2022,10,07,15,57,22.90
2022,10,07,15,58,22.90
2022,10,07,15,59,22.90
2022,10,07,16,00,22.90
2022,10,07,16,01,23.00
2022,10,07,16,02,23.00
2022,10,07,16,03,23.00
2022,10,07,16,04,23.10
2022,10,07,16,05,23.10
2022,10,07,16,06,23.10
2022,10,07,16,07,23.20
2022,10,07,16,08,23.20
2022,10,07,16,09,23.20
2022,10,07,16,10,23.20
2022,10,07,16,11,23.20
2022,10,07,16,12,23.20
2022,10,07,16,13,23.20
2022,10,07,16,14,23.20
2022,10,07,16,15,23.20
2022,10,07,16,16,23.20
2022,10,07,16,17,23.10
2022,10,07,16,18,23.10
2022,10,07,16,19,23.10
2022,10,07,16,20,23.20
2022,10,07,16,21,23.10
2022,10,07,16,22,23.20
2022,10,07,16,23,23.10
2022,10,07,16,24,23.10
2022,10,07,16,25,23.10
2022,10,07,16,26,23.00
2022,10,07,16,27,23.00
2022,10,07,16,28,23.00
2022,10,07,16,29,23.00
2022,10,07,16,30,23.00
2022,10,07,16,31,23.00
2022,10,07,16,32,23.00
2022,10,07,16,33,23.00
2022,10,07,16,34,23.00
2022,10,07,16,35,23.00
2022,10,07,16,36,23.00
2022,10,07,16,37,23.10
2022,10,07,16,38,23.10
2022,10,07,16,39,23.10
2022,10,07,16,40,23.10
2022,10,07,16,41,23.10
2022,10,07,16,42,23.10
2022,10,07,16,43,23.10
2022,10,07,16,44,23.10
2022,10,07,16,45,23.10
2022,10,07,16,46,23.20
2022,10,07,16,47,23.20
2022,10,07,16,48,23.30
2022,10,07,16,49,23.40
2022,10,07,16,50,23.40
2022,10,07,16,51,23.50
2022,10,07,16,52,23.50
2022,10,07,16,53,23.60
2022,10,07,16,54,23.60
2022,10,07,16,55,23.70
2022,10,07,16,56,23.70
2022,10,07,16,57,23.70
2022,10,07,16,58,23.70
2022,10,07,16,59,23.70
2022,10,07,17,00,23.70
2022,10,07,17,01,23.80
2022,10,07,17,02,23.70
2022,10,07,17,03,23.70
2022,10,07,17,04,23.70
2022,10,07,17,05,23.70
2022,10,07,17,06,23.70
2022,10,07,17,07,23.70
2022,10,07,17,08,23.70
2022,10,07,17,09,23.60
2022,10,07,17,10,23.60
2022,10,07,17,11,23.60
2022,10,07,17,12,23.60
2022,10,07,17,13,23.50
2022,10,07,17,14,23.40
2022,10,07,17,15,23.40
2022,10,07,17,16,23.40
2022,10,07,17,17,23.30
2022,10,07,17,18,23.30
2022,10,07,17,19,23.20